TimeCDT,TemperatureF,Dew PointF,Humidity,Sea Level PressureIn,VisibilityMPH,Wind Direction,Wind SpeedMPH,Gust SpeedMPH,PrecipitationIn,Events,Conditions,WindDirDegrees,DateUTC
12:56 AM,42.8,42.8,100,29.91,10.0,South,3.5,-,N/A,,Clear,180,2013-05-11 05:56:00
1:56 AM,39.9,39.9,100,29.90,6.0,Calm,Calm,-,N/A,,Clear,0,2013-05-11 06:56:00
2:56 AM,39.9,39.9,100,29.87,8.0,Calm,Calm,-,N/A,,Partly Cloudy,0,2013-05-11 07:56:00
3:42 AM,39.2,39.2,100,29.85,2.0,SW,3.5,-,N/A,,Clear,230,2013-05-11 08:42:00
3:56 AM,41.9,41.9,100,29.85,9.0,WSW,4.6,-,N/A,,Partly Cloudy,240,2013-05-11 08:56:00
4:56 AM,43.9,43.9,100,29.84,8.0,West,5.8,-,N/A,,Partly Cloudy,260,2013-05-11 09:56:00
5:56 AM,46.9,45.9,96,29.81,8.0,SW,3.5,-,0.00,Rain,Light Rain,220,2013-05-11 10:56:00
6:56 AM,46.9,46.9,100,29.80,7.0,SSW,3.5,-,0.00,,Overcast,210,2013-05-11 11:56:00
7:56 AM,48.9,47.8,96,29.81,10.0,WNW,11.5,-,0.00,,Overcast,290,2013-05-11 12:56:00
8:13 AM,48.2,42.8,82,29.82,10.0,NW,16.1,24.2,N/A,,Overcast,310,2013-05-11 13:13:00
8:56 AM,43.0,36.0,76,29.86,10.0,NNW,18.4,32.2,0.00,Rain,Light Rain,340,2013-05-11 13:56:00
9:56 AM,42.8,35.6,76,29.87,10.0,NNW,15.0,25.3,N/A,,Overcast,330,2013-05-11 14:56:00
10:37 AM,44.6,30.2,57,29.88,10.0,NNW,21.9,31.1,N/A,,Overcast,330,2013-05-11 15:37:00
10:56 AM,45.0,29.1,54,29.90,10.0,NW,20.7,34.5,N/A,,Mostly Cloudy,320,2013-05-11 15:56:00
11:56 AM,46.9,27.1,46,29.90,10.0,NNW,23.0,33.4,N/A,,Partly Cloudy,340,2013-05-11 16:56:00
12:56 PM,50.0,25.2,38,29.91,10.0,NW,18.4,32.2,N/A,,Partly Cloudy,320,2013-05-11 17:56:00
1:56 PM,48.9,23.0,36,29.92,10.0,NW,17.3,28.8,N/A,,Mostly Cloudy,320,2013-05-11 18:56:00
2:56 PM,50.9,21.0,31,29.93,10.0,NNW,20.7,35.7,N/A,,Partly Cloudy,330,2013-05-11 19:56:00
3:56 PM,44.6,24.8,46,29.94,6.0,NNW,13.8,39.1,N/A,Rain,Light Rain,330,2013-05-11 20:56:00
4:56 PM,48.9,20.1,32,29.96,10.0,NW,18.4,29.9,0.00,,Partly Cloudy,320,2013-05-11 21:56:00
5:56 PM,46.9,25.2,43,29.98,10.0,NW,17.3,26.5,0.00,,Partly Cloudy,310,2013-05-11 22:56:00
6:56 PM,46.9,18.1,32,29.98,10.0,NW,16.1,26.5,N/A,,Clear,320,2013-05-11 23:56:00
7:56 PM,45.0,21.0,39,30.00,10.0,NW,13.8,24.2,N/A,,Partly Cloudy,310,2013-05-12 00:56:00
8:56 PM,41.9,25.2,52,30.02,10.0,NW,12.7,-,0.00,,Scattered Clouds,320,2013-05-12 01:56:00
9:56 PM,39.2,26.6,61,30.04,10.0,NNW,15.0,27.6,N/A,,Mostly Cloudy,340,2013-05-12 02:56:00
10:56 PM,38.8,28.0,65,30.05,10.0,NW,8.1,-,N/A,,Scattered Clouds,320,2013-05-12 03:56:00
11:56 PM,37.9,27.1,65,30.05,10.0,NW,11.5,19.6,N/A,,Clear,320,2013-05-12 04:56:00